Location: Sternwarte_Laufen
(47.9344°N, 12.9346°E)
Time: 00:42:30
(UTC+02:00)

ISS - Pass Details

Date: 28 May 2017
Orbit: 402 x 408 km, 51.6° (Epoch: 27 May)

Event Time Altitude Azimuth Distance (km) Brightness Sun altitude
Rises 21:35:58 0° 244° (WSW) 2,327 0.3 -6.1°
Reaches altitude 10° 21:38:03 10° 244° (WSW) 1,468 -0.7 -6.4°
Maximum altitude 21:41:21 87° 161° (SSE) 413 -3.8 -6.8°
Drops below altitude 10° 21:44:39 10° 67° (ENE) 1,472 -1.2 -7.2°
Sets 21:46:44 0° 67° (ENE) 2,333 -0.2 -7.4°
